PSLV DEB

Satellite information

Favourite Embed

Satellite Type and Status

DEBRISIN ORBIT

Key statistics

Satellite PSLV DEB at a glance.

Uptime

4459

Days in orbit

Revolutions

≈ 14.4

Per day

Orbit

SSO

Sun Synchronous Orbit

Inclination

98.3

Latest

Satellite identification and parameters

Extended collection of information and parameters for PSLV DEB.

Object identification

Identified? True

Debris? True

Object name: PSLV DEB

International designator: 2013-009J

Object number (NORAD): 39094

Object ID (CCSDS): 39094

Country: INDIA (IND)

Current information (Y/N): Y

RCS size: LARGE

Orbital parameters

Period: 99.791 minutes

Inclination: 98.3339 deg

SMA: 7126.704 km

Apoapsis: 754.436 km

Periapsis: 742.702 km

RAAN: 324.5578 deg

Eccentricy: 0.0008232

Argument of periapsis: 302.7771 deg

Mean anomaly: 57.2626 deg

Mean motion: 14.43011123 rev/day

Mean motion (dot): 0.00001694 rev/day2

B* drag term: 0.00051842 1/REarth

Two-line elements (TLE)

Creation date: May 12, 2025, 2:31 a.m.

Reference frame: TEME

Reference center: EARTH

Epoch: May 11, 2025, 6:22 p.m. UTC

TLE line 0: 0 PSLV DEB

TLE line 1: 1 39094U 13009J 25131.76588623 .00001694 00000-0 51842-3 0 9998

TLE line 2: 2 39094 98.3339 324.5578 0008232 302.7771 57.2626 14.43011123640196

Live tracking on map

Real-time ground track for satellite PSLV DEB.

In-orbit conjunctions

A list of the most updated potential collisions computed for object PSLV DEB.

Target Orbit TCA Probability of collision Miss distance Type
COSMOS 468 DEB LEO 2024-12-24 09:36:40 0.0001351814 93.0 (m) DEBRIS
CZ-6A DEB SSO 2024-11-13 05:39:34 0.00026055 204.0 (m) DEBRIS

Associated space launch

SARAL or Satellite with ARgos and ALtiKa is a cooperative altimetry technology mission of Indian Space Research Organisation (ISRO) and CNES (Space Agency of France). SARAL is tasked to perform altimetric measurements designed to study ocean circulation and sea surface elevation.

PSLV DEB was lifted into orbit during the mission ‘PSLV-CA | SARAL’, on board a PSLV space rocket.

The launch took place on Feb. 25, 2013, 12:31 p.m. from Satish Dhawan Space Centre First Launch Pad.

For more information about the launch, click the button.

Launch to space PSLV-CA | SARAL
PSLV-CA | SARAL

Agency: N/A

Status: Launch Successful

Launch date: Feb. 25, 2013, 12:31 p.m. UTC

Rocket: PSLV

Launch pad: Satish Dhawan Space Centre First Launch Pad

Location: Satish Dhawan Space Centre, India

...

Latest news about this satellite

There are no fresh news available about this satellite. Check back as we update our databases every day.


Newsletter sign-up

Weekly statistics, charts and insights to help you stay on top of the space industry.